START_TIME,STEP,MOV.,M6,t_acc.,M7,t_acc.,M19,t_acc.,H36,t_acc.
1979-03-02 00:00:16.560 ,3,1,1.,12.0,0.,12.0,0.,12.0,2.,12.0
1979-03-02 00:00:28.560 ,3,1,1.,12.0,0.,12.0,0.,12.0,0.,12.0
1979-03-02 00:00:40.560 ,4,1,4.,12.0,0.,12.0,0.,12.0,2.,12.0
1979-03-02 00:00:52.560 ,4,1,0.,12.0,0.,12.0,0.,12.0,1.,12.0
1979-03-02 00:01:04.560 ,5,1,2.,12.0,0.,12.0,0.,12.0,1.,12.0
1979-03-02 00:01:16.560 ,5,1,2.,12.0,0.,12.0,0.,12.0,0.,12.0
1979-03-02 00:01:28.560 ,6,1,2.,12.0,0.,12.0,0.,12.0,0.,12.0
1979-03-02 00:01:40.560 ,6,1,1.,12.0,0.,12.0,0.,12.0,0.,12.0
1979-03-02 00:01:52.560 ,7,1,0.,12.0,0.,12.0,0.,12.0,0.,12.0
1979-03-02 00:02:04.560 ,7,1,0.,12.0,0.,12.0,0.,12.0,1.,12.0
1979-03-02 00:02:16.560 ,7,1,0.,12.0,0.,12.0,0.,12.0,0.,12.0
1979-03-02 00:02:28.560 ,7,1,0.,12.0,0.,12.0,0.,12.0,0.,12.0
1979-03-02 00:02:40.560 ,6,1,0.,12.0,0.,12.0,0.,12.0,0.,12.0
1979-03-02 00:02:52.560 ,6,1,0.,12.0,0.,12.0,0.,12.0,0.,12.0
1979-03-02 00:03:04.560 ,5,1,0.,12.0,0.,12.0,0.,12.0,0.,12.0
1979-03-02 00:03:16.560 ,5,1,1.,12.0,0.,12.0,0.,12.0,2.,12.0
1979-03-02 00:03:28.560 ,4,1,0.,12.0,0.,12.0,0.,12.0,0.,12.0
1979-03-02 00:03:40.560 ,4,1,2.,12.0,0.,12.0,0.,12.0,1.,12.0
1979-03-02 00:03:52.560 ,3,1,1.,12.0,0.,12.0,0.,12.0,2.,12.0
1979-03-02 00:04:04.560 ,3,1,1.,12.0,0.,12.0,0.,12.0,1.,12.0
1979-03-02 00:04:16.560 ,2,1,1.,12.0,0.,12.0,0.,12.0,0.,12.0
1979-03-02 00:04:28.560 ,2,1,1.,12.0,0.,12.0,0.,12.0,0.,12.0
1979-03-02 00:04:40.560 ,1,1,1.,12.0,0.,12.0,0.,12.0,1.,12.0
1979-03-02 00:04:52.560 ,1,1,1.,12.0,0.,12.0,0.,12.0,0.,12.0
1979-03-02 00:05:04.560 ,0,1,1.,12.0,0.,12.0,0.,12.0,0.,12.0
1979-03-02 00:05:16.560 ,0,1,0.,12.0,0.,12.0,0.,12.0,0.,12.0
1979-03-02 00:05:28.560 ,0,1,3.,12.0,0.,12.0,0.,12.0,0.,12.0
1979-03-02 00:05:40.560 ,0,1,0.,12.0,0.,12.0,0.,12.0,1.,12.0
1979-03-02 00:05:52.560 ,1,1,0.,12.0,0.,12.0,0.,12.0,0.,12.0
1979-03-02 00:06:04.560 ,1,1,1.,12.0,0.,12.0,0.,12.0,1.,12.0
1979-03-02 00:06:16.560 ,2,1,0.,12.0,0.,12.0,0.,12.0,0.,12.0
1979-03-02 00:06:28.560 ,2,1,0.,12.0,0.,12.0,0.,12.0,0.,12.0
1979-03-02 00:06:40.560 ,3,1,0.,12.0,0.,12.0,0.,12.0,1.,12.0
1979-03-02 00:06:52.560 ,3,1,1.,12.0,0.,12.0,0.,12.0,1.,12.0
1979-03-02 00:07:04.560 ,4,1,1.,12.0,0.,12.0,0.,12.0,0.,12.0
1979-03-02 00:07:16.560 ,4,1,0.,12.0,0.,12.0,0.,12.0,1.,12.0
1979-03-02 00:07:28.560 ,5,1,0.,12.0,0.,12.0,0.,12.0,1.,12.0
1979-03-02 00:07:40.560 ,5,1,0.,12.0,0.,12.0,0.,12.0,0.,12.0
1979-03-02 00:07:52.560 ,6,1,0.,12.0,0.,12.0,0.,12.0,0.,12.0
1979-03-02 00:08:04.560 ,6,1,3.,12.0,0.,12.0,0.,12.0,0.,12.0
1979-03-02 00:08:16.560 ,7,1,1.,12.0,0.,12.0,0.,12.0,1.,12.0
1979-03-02 00:08:28.560 ,7,1,0.,12.0,0.,12.0,0.,12.0,0.,12.0
1979-03-02 00:08:40.560 ,7,1,0.,12.0,0.,12.0,0.,12.0,0.,12.0
1979-03-02 00:08:52.560 ,7,1,0.,12.0,0.,12.0,0.,12.0,0.,12.0
1979-03-02 00:09:04.560 ,6,1,0.,12.0,0.,12.0,0.,12.0,0.,12.0
1979-03-02 00:09:16.560 ,6,1,0.,12.0,0.,12.0,0.,12.0,0.,12.0
1979-03-02 00:09:28.560 ,5,1,2.,12.0,0.,12.0,0.,12.0,1.,12.0
1979-03-02 00:09:40.560 ,5,1,1.,12.0,0.,12.0,0.,12.0,0.,12.0
1979-03-02 00:09:52.560 ,4,1,0.,12.0,0.,12.0,0.,12.0,1.,12.0
1979-03-02 00:10:04.560 ,4,1,1.,12.0,0.,12.0,0.,12.0,0.,12.0
1979-03-02 00:10:16.560 ,3,1,5.,12.0,0.,12.0,0.,12.0,1.,12.0
1979-03-02 00:10:28.560 ,3,1,1.,12.0,0.,12.0,0.,12.0,1.,12.0
1979-03-02 00:10:40.560 ,2,1,1.,12.0,0.,12.0,0.,12.0,0.,12.0
1979-03-02 00:10:52.560 ,2,1,1.,12.0,0.,12.0,0.,12.0,1.,12.0
1979-03-02 00:11:04.560 ,1,1,0.,12.0,0.,12.0,0.,12.0,0.,12.0
1979-03-02 00:11:16.560 ,1,1,1.,12.0,0.,12.0,0.,12.0,0.,12.0
1979-03-02 00:11:28.560 ,0,1,3.,12.0,0.,12.0,0.,12.0,0.,12.0
1979-03-02 00:11:40.560 ,0,1,0.,12.0,0.,12.0,0.,12.0,0.,12.0
1979-03-02 00:11:52.560 ,0,1,0.,12.0,0.,12.0,0.,12.0,1.,12.0
1979-03-02 00:12:04.560 ,0,1,0.,12.0,0.,12.0,0.,12.0,0.,12.0
1979-03-02 00:12:16.560 ,1,1,1.,12.0,0.,12.0,0.,12.0,0.,12.0
1979-03-02 00:12:28.560 ,1,1,0.,12.0,0.,12.0,0.,12.0,0.,12.0
1979-03-02 00:12:40.560 ,2,1,0.,12.0,0.,12.0,0.,12.0,0.,12.0
1979-03-02 00:12:52.560 ,2,1,3.,12.0,0.,12.0,0.,12.0,0.,12.0
1979-03-02 00:13:04.560 ,3,1,0.,12.0,0.,12.0,0.,12.0,1.,12.0
1979-03-02 00:13:16.560 ,3,1,1.,12.0,0.,12.0,0.,12.0,0.,12.0
1979-03-02 00:13:28.560 ,4,1,1.,12.0,0.,12.0,0.,12.0,0.,12.0
1979-03-02 00:13:40.560 ,4,1,2.,12.0,0.,12.0,0.,12.0,1.,12.0
1979-03-02 00:13:52.560 ,5,1,1.,12.0,0.,12.0,0.,12.0,2.,12.0
1979-03-02 00:14:04.560 ,5,1,2.,12.0,0.,12.0,0.,12.0,0.,12.0
1979-03-02 00:14:16.560 ,6,1,2.,12.0,0.,12.0,0.,12.0,1.,12.0
1979-03-02 00:14:28.560 ,6,1,0.,12.0,0.,12.0,0.,12.0,1.,12.0
1979-03-02 00:14:40.560 ,7,1,1.,12.0,0.,12.0,0.,12.0,0.,12.0
1979-03-02 00:14:52.560 ,7,1,0.,12.0,0.,12.0,0.,12.0,0.,12.0
1979-03-02 00:15:04.560 ,7,1,0.,12.0,0.,12.0,0.,12.0,0.,12.0
1979-03-02 00:15:16.560 ,7,1,0.,12.0,0.,12.0,0.,12.0,0.,12.0
1979-03-02 00:15:28.560 ,6,1,0.,12.0,0.,12.0,0.,12.0,0.,12.0
1979-03-02 00:15:40.560 ,6,1,2.,12.0,0.,12.0,0.,12.0,0.,12.0
1979-03-02 00:15:52.560 ,5,1,1.,12.0,0.,12.0,0.,12.0,1.,12.0
1979-03-02 00:16:04.560 ,5,1,0.,12.0,0.,12.0,0.,12.0,3.,12.0
1979-03-02 00:16:16.560 ,4,1,1.,12.0,0.,12.0,0.,12.0,1.,12.0
1979-03-02 00:16:28.560 ,4,1,2.,12.0,0.,12.0,0.,12.0,2.,12.0
1979-03-02 00:16:40.560 ,3,1,2.,12.0,0.,12.0,0.,12.0,0.,12.0
1979-03-02 00:16:52.560 ,3,1,3.,12.0,0.,12.0,0.,12.0,1.,12.0
1979-03-02 00:17:04.560 ,2,1,0.,12.0,0.,12.0,0.,12.0,1.,12.0
1979-03-02 00:17:16.560 ,2,1,0.,12.0,0.,12.0,0.,12.0,0.,12.0
1979-03-02 00:17:28.560 ,1,1,0.,12.0,0.,12.0,0.,12.0,1.,12.0
1979-03-02 00:17:40.560 ,1,1,0.,12.0,0.,12.0,0.,12.0,0.,12.0
1979-03-02 00:17:52.560 ,0,1,0.,12.0,0.,12.0,0.,12.0,2.,12.0
1979-03-02 00:18:04.560 ,0,1,1.,12.0,0.,12.0,0.,12.0,0.,12.0
1979-03-02 00:18:16.560 ,0,1,1.,12.0,0.,12.0,0.,12.0,0.,12.0
1979-03-02 00:18:28.560 ,0,1,0.,12.0,0.,12.0,0.,12.0,0.,12.0
1979-03-02 00:18:40.560 ,1,1,0.,12.0,0.,12.0,0.,12.0,1.,12.0
1979-03-02 00:18:52.560 ,1,1,1.,12.0,0.,12.0,0.,12.0,1.,12.0
1979-03-02 00:19:04.560 ,2,1,2.,12.0,0.,12.0,0.,12.0,0.,12.0
1979-03-02 00:19:16.560 ,2,1,0.,12.0,0.,12.0,0.,12.0,0.,12.0
1979-03-02 00:19:28.560 ,3,1,1.,12.0,0.,12.0,0.,12.0,1.,12.0
1979-03-02 00:19:40.560 ,3,1,1.,12.0,0.,12.0,0.,12.0,0.,12.0
1979-03-02 00:19:52.560 ,4,1,2.,12.0,0.,12.0,0.,12.0,0.,12.0
1979-03-02 00:20:04.560 ,4,1,3.,12.0,0.,12.0,0.,12.0,0.,12.0
1979-03-02 00:20:16.560 ,5,1,0.,12.0,0.,12.0,0.,12.0,2.,12.0
1979-03-02 00:20:28.560 ,5,1,0.,12.0,0.,12.0,0.,12.0,0.,12.0
1979-03-02 00:20:40.560 ,6,1,1.,12.0,0.,12.0,0.,12.0,0.,12.0
1979-03-02 00:20:52.560 ,6,1,3.,12.0,0.,12.0,0.,12.0,0.,12.0
1979-03-02 00:21:04.560 ,7,1,0.,12.0,0.,12.0,0.,12.0,0.,12.0
1979-03-02 00:21:16.560 ,7,1,0.,12.0,0.,12.0,0.,12.0,0.,12.0
1979-03-02 00:21:28.560 ,0,0,,0,,0,,0,,0
1979-03-02 00:21:40.560 ,0,0,,0,,0,,0,,0
1979-03-02 00:21:52.560 ,0,0,,0,,0,,0,,0
1979-03-02 00:22:04.560 ,0,0,,0,,0,,0,,0
1979-03-02 00:24:51.360 ,0,0,,0,,0,,0,,0
1979-03-02 00:25:03.360 ,0,0,1.,12.0,0.,12.0,0.,12.0,0.,12.0
1979-03-02 00:25:04.560 ,1,1,0.,12.0,0.,12.0,0.,12.0,1.,12.0
1979-03-02 00:25:16.560 ,1,1,0.,12.0,0.,12.0,0.,12.0,0.,12.0
1979-03-02 00:25:28.560 ,2,1,0.,12.0,0.,12.0,0.,12.0,0.,12.0
1979-03-02 00:25:40.560 ,2,1,1.,12.0,0.,12.0,0.,12.0,0.,12.0
1979-03-02 00:25:52.560 ,3,1,1.,12.0,0.,12.0,0.,12.0,0.,12.0
1979-03-02 00:26:04.560 ,3,1,0.,12.0,0.,12.0,0.,12.0,0.,12.0
1979-03-02 00:26:16.560 ,4,1,2.,12.0,0.,12.0,0.,12.0,0.,12.0
1979-03-02 00:26:28.560 ,4,1,2.,12.0,0.,12.0,0.,12.0,0.,12.0
1979-03-02 00:26:40.560 ,5,1,1.,12.0,0.,12.0,0.,12.0,0.,12.0
1979-03-02 00:26:52.560 ,5,1,1.,12.0,0.,12.0,0.,12.0,0.,12.0
1979-03-02 00:27:04.560 ,6,1,2.,12.0,0.,12.0,0.,12.0,0.,12.0
1979-03-02 00:27:16.560 ,6,1,2.,12.0,0.,12.0,0.,12.0,1.,12.0
1979-03-02 00:27:28.560 ,7,1,0.,12.0,0.,12.0,0.,12.0,1.,12.0
1979-03-02 00:27:40.560 ,7,1,0.,12.0,0.,12.0,0.,12.0,0.,12.0
1979-03-02 00:27:52.560 ,7,1,0.,12.0,0.,12.0,0.,12.0,0.,12.0
1979-03-02 00:28:04.560 ,7,1,0.,12.0,0.,12.0,0.,12.0,0.,12.0
1979-03-02 00:28:16.560 ,6,1,0.,12.0,0.,12.0,0.,12.0,0.,12.0
1979-03-02 00:28:28.560 ,6,1,1.,12.0,0.,12.0,0.,12.0,0.,12.0
1979-03-02 00:28:40.560 ,5,1,1.,12.0,0.,12.0,0.,12.0,0.,12.0
1979-03-02 00:28:52.560 ,5,1,0.,12.0,0.,12.0,0.,12.0,1.,12.0
1979-03-02 00:29:04.560 ,4,1,0.,12.0,0.,12.0,0.,12.0,0.,12.0
1979-03-02 00:29:16.560 ,4,1,2.,12.0,0.,12.0,0.,12.0,0.,12.0
1979-03-02 00:29:28.560 ,3,1,0.,12.0,0.,12.0,0.,12.0,0.,12.0
1979-03-02 00:29:40.560 ,3,1,4.,12.0,0.,12.0,0.,12.0,0.,12.0
1979-03-02 00:29:52.560 ,2,1,4.,12.0,0.,12.0,0.,12.0,0.,12.0
1979-03-02 00:30:04.560 ,2,1,0.,12.0,0.,12.0,0.,12.0,2.,12.0
1979-03-02 00:30:16.560 ,1,1,1.,12.0,0.,12.0,0.,12.0,0.,12.0
1979-03-02 00:30:28.560 ,1,1,2.,12.0,0.,12.0,0.,12.0,0.,12.0
1979-03-02 00:30:40.560 ,0,1,1.,12.0,0.,12.0,0.,12.0,1.,12.0
1979-03-02 00:30:52.560 ,0,1,0.,12.0,0.,12.0,0.,12.0,1.,12.0
1979-03-02 00:31:04.560 ,0,1,0.,12.0,0.,12.0,0.,12.0,0.,12.0
1979-03-02 00:31:16.560 ,0,1,2.,12.0,0.,12.0,0.,12.0,0.,12.0
1979-03-02 00:31:28.560 ,1,1,1.,12.0,0.,12.0,0.,12.0,0.,12.0
1979-03-02 00:31:40.560 ,1,1,0.,12.0,0.,12.0,0.,12.0,0.,12.0
1979-03-02 00:31:52.560 ,2,1,2.,12.0,0.,12.0,0.,12.0,1.,12.0
1979-03-02 00:32:04.560 ,2,1,3.,12.0,0.,12.0,0.,12.0,0.,12.0
1979-03-02 00:32:16.560 ,3,1,0.,12.0,0.,12.0,0.,12.0,0.,12.0
1979-03-02 00:32:28.560 ,3,1,0.,12.0,0.,12.0,0.,12.0,0.,12.0
1979-03-02 00:32:40.560 ,4,1,0.,12.0,0.,12.0,0.,12.0,0.,12.0
1979-03-02 00:32:52.560 ,4,1,0.,12.0,0.,12.0,0.,12.0,0.,12.0
1979-03-02 00:33:04.560 ,5,1,0.,12.0,0.,12.0,0.,12.0,0.,12.0
1979-03-02 00:33:16.560 ,5,1,1.,12.0,0.,12.0,0.,12.0,0.,12.0
1979-03-02 00:33:28.560 ,6,1,0.,12.0,0.,12.0,0.,12.0,0.,12.0
1979-03-02 00:33:40.560 ,6,1,0.,12.0,0.,12.0,0.,12.0,0.,12.0
1979-03-02 00:33:52.560 ,7,1,1.,12.0,0.,12.0,0.,12.0,0.,12.0
1979-03-02 00:34:04.560 ,7,1,0.,12.0,0.,12.0,0.,12.0,0.,12.0
1979-03-02 00:34:16.560 ,7,1,0.,12.0,0.,12.0,0.,12.0,0.,12.0
1979-03-02 00:34:28.560 ,7,1,0.,12.0,0.,12.0,0.,12.0,0.,12.0
1979-03-02 00:34:40.560 ,6,1,0.,12.0,0.,12.0,0.,12.0,0.,12.0
1979-03-02 00:34:52.560 ,6,1,1.,12.0,0.,12.0,0.,12.0,0.,12.0
1979-03-02 00:35:04.560 ,5,1,0.,12.0,0.,12.0,0.,12.0,0.,12.0
1979-03-02 00:35:16.560 ,5,1,0.,12.0,0.,12.0,0.,12.0,2.,12.0
1979-03-02 00:35:28.560 ,4,1,0.,12.0,0.,12.0,0.,12.0,0.,12.0
1979-03-02 00:35:40.560 ,4,1,0.,12.0,0.,12.0,0.,12.0,0.,12.0
1979-03-02 00:35:52.560 ,3,1,0.,12.0,0.,12.0,0.,12.0,0.,12.0
1979-03-02 00:36:04.560 ,3,1,0.,12.0,0.,12.0,0.,12.0,0.,12.0
1979-03-02 00:36:16.560 ,2,1,1.,12.0,0.,12.0,0.,12.0,0.,12.0
1979-03-02 00:36:28.560 ,2,1,0.,12.0,0.,12.0,0.,12.0,0.,12.0
1979-03-02 00:36:40.560 ,1,1,1.,12.0,0.,12.0,0.,12.0,0.,12.0
1979-03-02 00:36:52.560 ,1,1,0.,12.0,0.,12.0,0.,12.0,0.,12.0
1979-03-02 00:37:04.560 ,0,1,1.,12.0,0.,12.0,0.,12.0,0.,12.0
1979-03-02 00:37:16.560 ,0,1,0.,12.0,0.,12.0,0.,12.0,0.,12.0
1979-03-02 00:37:28.560 ,0,1,0.,12.0,0.,12.0,0.,12.0,0.,12.0
1979-03-02 00:37:40.560 ,0,1,1.,12.0,0.,12.0,0.,12.0,1.,12.0
1979-03-02 00:37:52.560 ,1,1,0.,12.0,0.,12.0,0.,12.0,0.,12.0
1979-03-02 00:38:04.560 ,1,1,1.,12.0,0.,12.0,0.,12.0,0.,12.0
1979-03-02 00:38:16.560 ,2,1,0.,12.0,0.,12.0,0.,12.0,0.,12.0
1979-03-02 00:38:28.560 ,2,1,0.,12.0,0.,12.0,0.,12.0,0.,12.0
1979-03-02 00:38:40.560 ,3,1,1.,12.0,0.,12.0,0.,12.0,1.,12.0
1979-03-02 00:38:52.560 ,3,1,0.,12.0,0.,12.0,0.,12.0,0.,12.0
1979-03-02 00:39:04.560 ,4,1,0.,12.0,0.,12.0,0.,12.0,0.,12.0
1979-03-02 00:39:16.560 ,4,1,2.,12.0,0.,12.0,0.,12.0,1.,12.0
1979-03-02 00:39:28.560 ,5,1,1.,12.0,0.,12.0,0.,12.0,1.,12.0
1979-03-02 00:39:40.560 ,5,1,0.,12.0,0.,12.0,0.,12.0,0.,12.0
1979-03-02 00:39:52.560 ,6,1,1.,12.0,0.,12.0,0.,12.0,1.,12.0
1979-03-02 00:40:04.560 ,6,1,1.,12.0,0.,12.0,0.,12.0,0.,12.0
1979-03-02 00:40:16.560 ,7,1,1.,12.0,0.,12.0,0.,12.0,0.,12.0
1979-03-02 00:40:28.560 ,7,1,0.,12.0,0.,12.0,0.,12.0,0.,12.0
1979-03-02 00:40:40.560 ,7,1,0.,12.0,0.,12.0,0.,12.0,0.,12.0
1979-03-02 00:40:52.560 ,7,1,0.,12.0,0.,12.0,0.,12.0,0.,12.0
1979-03-02 00:41:04.560 ,6,1,0.,12.0,0.,12.0,0.,12.0,0.,12.0
1979-03-02 00:41:16.560 ,6,1,2.,12.0,0.,12.0,0.,12.0,0.,12.0
1979-03-02 00:41:28.560 ,0,0,0.,12.0,0.,12.0,0.,12.0,0.,12.0
1979-03-02 00:41:40.560 ,0,0,0.,12.0,0.,12.0,0.,12.0,0.,12.0
1979-03-02 00:41:52.560 ,0,0,2.,12.0,0.,12.0,0.,12.0,0.,12.0
1979-03-02 00:42:04.560 ,0,0,0.,12.0,0.,12.0,0.,12.0,0.,12.0
1979-03-02 00:42:16.560 ,3,1,2.,12.0,0.,12.0,0.,12.0,1.,12.0
1979-03-02 00:42:28.560 ,3,1,0.,12.0,0.,12.0,0.,12.0,0.,12.0
1979-03-02 00:42:40.560 ,2,1,0.,12.0,0.,12.0,0.,12.0,0.,12.0
1979-03-02 00:42:52.560 ,2,1,1.,12.0,0.,12.0,0.,12.0,0.,12.0
1979-03-02 00:43:04.560 ,1,1,1.,12.0,0.,12.0,0.,12.0,0.,12.0
1979-03-02 00:43:16.560 ,1,1,1.,12.0,0.,12.0,0.,12.0,0.,12.0
1979-03-02 00:43:28.560 ,0,1,0.,12.0,0.,12.0,0.,12.0,0.,12.0
1979-03-02 00:43:40.560 ,0,1,2.,12.0,0.,12.0,0.,12.0,0.,12.0
1979-03-02 00:43:52.560 ,0,1,0.,12.0,0.,12.0,0.,12.0,0.,12.0
1979-03-02 00:44:04.560 ,0,1,1.,12.0,0.,12.0,0.,12.0,0.,12.0
1979-03-02 00:44:16.560 ,1,1,0.,12.0,0.,12.0,0.,12.0,0.,12.0
1979-03-02 00:44:28.560 ,1,1,0.,12.0,0.,12.0,0.,12.0,0.,12.0
1979-03-02 00:44:40.560 ,2,1,0.,12.0,0.,12.0,0.,12.0,1.,12.0
1979-03-02 00:44:52.560 ,2,1,0.,12.0,0.,12.0,0.,12.0,0.,12.0
1979-03-02 00:45:04.560 ,3,1,1.,12.0,0.,12.0,0.,12.0,0.,12.0
1979-03-02 00:45:16.560 ,3,1,0.,12.0,0.,12.0,0.,12.0,0.,12.0
1979-03-02 00:45:28.560 ,4,1,1.,12.0,0.,12.0,0.,12.0,0.,12.0
1979-03-02 00:45:40.560 ,4,1,1.,12.0,0.,12.0,0.,12.0,0.,12.0
1979-03-02 00:45:52.560 ,5,1,1.,12.0,0.,12.0,0.,12.0,2.,12.0
1979-03-02 00:46:04.560 ,5,1,0.,12.0,0.,12.0,0.,12.0,0.,12.0
1979-03-02 00:46:16.560 ,6,1,2.,12.0,0.,12.0,0.,12.0,0.,12.0
1979-03-02 00:46:28.560 ,6,1,0.,12.0,0.,12.0,0.,12.0,1.,12.0
1979-03-02 00:46:40.560 ,7,1,0.,12.0,0.,12.0,0.,12.0,0.,12.0
1979-03-02 00:46:52.560 ,7,1,0.,12.0,0.,12.0,0.,12.0,1.,12.0
1979-03-02 00:47:04.560 ,7,1,0.,12.0,0.,12.0,0.,12.0,0.,12.0
1979-03-02 00:47:16.560 ,7,1,0.,12.0,0.,12.0,0.,12.0,0.,12.0
1979-03-02 00:47:28.560 ,6,1,0.,12.0,0.,12.0,0.,12.0,0.,12.0
1979-03-02 00:47:40.560 ,6,1,0.,12.0,0.,12.0,0.,12.0,0.,12.0
1979-03-02 00:47:52.560 ,5,1,3.,12.0,0.,12.0,0.,12.0,0.,12.0
1979-03-02 00:48:04.560 ,5,1,1.,12.0,0.,12.0,0.,12.0,1.,12.0
1979-03-02 00:48:16.560 ,4,1,1.,12.0,0.,12.0,0.,12.0,1.,12.0
1979-03-02 00:48:28.560 ,4,1,0.,12.0,0.,12.0,0.,12.0,0.,12.0
1979-03-02 00:48:40.560 ,3,1,1.,12.0,0.,12.0,0.,12.0,1.,12.0
1979-03-02 00:48:52.560 ,3,1,0.,12.0,0.,12.0,0.,12.0,0.,12.0
1979-03-02 00:49:04.560 ,2,1,2.,12.0,0.,12.0,0.,12.0,1.,12.0
1979-03-02 00:49:16.560 ,2,1,2.,12.0,0.,12.0,0.,12.0,0.,12.0
1979-03-02 00:49:28.560 ,1,1,0.,12.0,0.,12.0,0.,12.0,0.,12.0
1979-03-02 00:49:40.560 ,1,1,1.,12.0,0.,12.0,0.,12.0,0.,12.0
1979-03-02 00:49:52.560 ,0,1,0.,12.0,0.,12.0,0.,12.0,0.,12.0
1979-03-02 00:50:04.560 ,0,1,0.,12.0,0.,12.0,0.,12.0,0.,12.0
1979-03-02 00:50:16.560 ,0,1,0.,12.0,0.,12.0,0.,12.0,0.,12.0
1979-03-02 00:50:28.560 ,0,1,1.,12.0,0.,12.0,0.,12.0,0.,12.0
1979-03-02 00:50:40.560 ,1,1,0.,12.0,0.,12.0,0.,12.0,0.,12.0
1979-03-02 00:50:52.560 ,1,1,0.,12.0,0.,12.0,0.,12.0,1.,12.0
1979-03-02 00:51:04.560 ,2,1,1.,12.0,0.,12.0,0.,12.0,0.,12.0
1979-03-02 00:51:16.560 ,2,1,2.,12.0,0.,12.0,0.,12.0,0.,12.0
1979-03-02 00:51:28.560 ,3,1,1.,12.0,0.,12.0,0.,12.0,1.,12.0
1979-03-02 00:51:40.560 ,3,1,0.,12.0,0.,12.0,0.,12.0,0.,12.0
1979-03-02 00:51:52.560 ,4,1,2.,12.0,0.,12.0,0.,12.0,0.,12.0
1979-03-02 00:52:04.560 ,4,1,0.,12.0,0.,12.0,0.,12.0,1.,12.0
1979-03-02 00:52:16.560 ,5,1,0.,12.0,0.,12.0,0.,12.0,0.,12.0
1979-03-02 00:52:28.560 ,5,1,4.,12.0,0.,12.0,0.,12.0,2.,12.0
1979-03-02 00:52:40.560 ,6,1,2.,12.0,0.,12.0,0.,12.0,0.,12.0
1979-03-02 00:52:52.560 ,6,1,3.,12.0,0.,12.0,0.,12.0,0.,12.0
1979-03-02 00:53:04.560 ,7,1,0.,12.0,0.,12.0,0.,12.0,0.,12.0
1979-03-02 00:53:16.560 ,7,1,0.,12.0,0.,12.0,0.,12.0,0.,12.0
1979-03-02 00:53:28.560 ,7,1,0.,12.0,0.,12.0,0.,12.0,0.,12.0
1979-03-02 00:53:40.560 ,7,1,0.,12.0,0.,12.0,0.,12.0,0.,12.0
1979-03-02 00:53:52.560 ,6,1,0.,12.0,0.,12.0,0.,12.0,0.,12.0
1979-03-02 00:54:04.560 ,6,1,1.,12.0,0.,12.0,0.,12.0,0.,12.0
1979-03-02 00:54:16.560 ,5,1,1.,12.0,0.,12.0,0.,12.0,1.,12.0
1979-03-02 00:54:28.560 ,5,1,1.,12.0,0.,12.0,0.,12.0,0.,12.0
1979-03-02 00:54:40.560 ,4,1,0.,12.0,0.,12.0,0.,12.0,3.,12.0
1979-03-02 00:54:52.560 ,4,1,1.,12.0,0.,12.0,0.,12.0,1.,12.0
1979-03-02 00:55:04.560 ,3,1,0.,12.0,0.,12.0,0.,12.0,0.,12.0
1979-03-02 00:55:16.560 ,3,1,1.,12.0,0.,12.0,0.,12.0,1.,12.0
1979-03-02 00:55:28.560 ,2,1,0.,12.0,0.,12.0,0.,12.0,1.,12.0
1979-03-02 00:55:40.560 ,2,1,0.,12.0,0.,12.0,0.,12.0,1.,12.0
1979-03-02 00:55:52.560 ,1,1,1.,12.0,0.,12.0,0.,12.0,0.,12.0
1979-03-02 00:56:04.560 ,1,1,1.,12.0,0.,12.0,0.,12.0,1.,12.0
1979-03-02 00:56:16.560 ,0,1,0.,12.0,0.,12.0,0.,12.0,0.,12.0
1979-03-02 00:56:28.560 ,0,1,1.,12.0,0.,12.0,0.,12.0,1.,12.0
1979-03-02 00:56:40.560 ,0,1,0.,12.0,0.,12.0,0.,12.0,0.,12.0
1979-03-02 00:56:52.560 ,0,1,0.,12.0,0.,12.0,0.,12.0,1.,12.0
1979-03-02 00:57:04.560 ,1,1,1.,12.0,0.,12.0,0.,12.0,1.,12.0
1979-03-02 00:57:16.560 ,1,1,0.,12.0,0.,12.0,0.,12.0,1.,12.0
1979-03-02 00:57:28.560 ,2,1,1.,12.0,0.,12.0,0.,12.0,0.,12.0
1979-03-02 00:57:40.560 ,2,1,0.,12.0,0.,12.0,0.,12.0,1.,12.0
1979-03-02 00:57:52.560 ,3,1,0.,12.0,0.,12.0,0.,12.0,0.,12.0
1979-03-02 00:58:04.560 ,3,1,2.,12.0,0.,12.0,0.,12.0,0.,12.0
1979-03-02 00:58:16.560 ,4,1,0.,12.0,0.,12.0,0.,12.0,0.,12.0
1979-03-02 00:58:28.560 ,4,1,0.,12.0,0.,12.0,0.,12.0,2.,12.0
1979-03-02 00:58:40.560 ,5,1,0.,12.0,0.,12.0,0.,12.0,0.,12.0
1979-03-02 00:58:52.560 ,5,1,1.,12.0,0.,12.0,0.,12.0,1.,12.0
1979-03-02 00:59:04.560 ,6,1,0.,12.0,0.,12.0,0.,12.0,0.,12.0
1979-03-02 00:59:16.560 ,6,1,0.,12.0,0.,12.0,0.,12.0,0.,12.0
1979-03-02 00:59:28.560 ,7,1,0.,12.0,0.,12.0,0.,12.0,1.,12.0
1979-03-02 00:59:40.560 ,7,1,0.,12.0,0.,12.0,0.,12.0,0.,12.0
1979-03-02 00:59:52.560 ,7,1,0.,12.0,0.,12.0,0.,12.0,0.,12.0
1979-03-02 01:00:04.560 ,7,1,0.,12.0,0.,12.0,0.,12.0,0.,12.0
1979-03-02 01:00:16.560 ,6,1,0.,12.0,0.,12.0,0.,12.0,0.,12.0
1979-03-02 01:00:28.560 ,6,1,1.,12.0,0.,12.0,0.,12.0,0.,12.0
1979-03-02 01:00:40.560 ,5,1,2.,12.0,0.,12.0,0.,12.0,1.,12.0
1979-03-02 01:00:52.560 ,5,1,1.,12.0,0.,12.0,0.,12.0,0.,12.0
1979-03-02 01:01:04.560 ,4,1,3.,12.0,0.,12.0,0.,12.0,0.,12.0
1979-03-02 01:01:16.560 ,4,1,0.,12.0,0.,12.0,0.,12.0,0.,12.0
1979-03-02 01:01:28.560 ,3,1,1.,12.0,0.,12.0,0.,12.0,0.,12.0
1979-03-02 01:01:40.560 ,3,1,0.,12.0,0.,12.0,0.,12.0,1.,12.0
1979-03-02 01:01:52.560 ,2,1,0.,12.0,0.,12.0,0.,12.0,0.,12.0
1979-03-02 01:02:04.560 ,2,1,1.,12.0,0.,12.0,0.,12.0,1.,12.0
1979-03-02 01:02:16.560 ,1,1,0.,12.0,0.,12.0,0.,12.0,1.,12.0
1979-03-02 01:02:28.560 ,1,1,2.,12.0,0.,12.0,0.,12.0,1.,12.0
1979-03-02 01:02:40.560 ,0,1,1.,12.0,0.,12.0,0.,12.0,1.,12.0
1979-03-02 01:02:52.560 ,0,1,0.,12.0,0.,12.0,0.,12.0,0.,12.0
1979-03-02 01:03:04.560 ,0,1,0.,12.0,0.,12.0,0.,12.0,1.,12.0
1979-03-02 01:03:16.560 ,0,1,1.,12.0,0.,12.0,0.,12.0,0.,12.0
1979-03-02 01:03:28.560 ,1,1,0.,12.0,0.,12.0,0.,12.0,0.,12.0
1979-03-02 01:03:40.560 ,1,1,2.,12.0,0.,12.0,0.,12.0,0.,12.0
1979-03-02 01:03:52.560 ,2,1,1.,12.0,0.,12.0,0.,12.0,0.,12.0
1979-03-02 01:04:04.560 ,2,1,2.,12.0,0.,12.0,0.,12.0,1.,12.0
1979-03-02 01:04:16.560 ,3,1,3.,12.0,0.,12.0,0.,12.0,0.,12.0
1979-03-02 01:04:28.560 ,3,1,2.,12.0,0.,12.0,0.,12.0,1.,12.0
1979-03-02 01:04:40.560 ,4,1,1.,12.0,0.,12.0,0.,12.0,0.,12.0
1979-03-02 01:04:52.560 ,4,1,1.,12.0,0.,12.0,0.,12.0,1.,12.0
1979-03-02 01:05:04.560 ,5,1,1.,12.0,0.,12.0,0.,12.0,0.,12.0
1979-03-02 01:05:16.560 ,5,1,0.,12.0,0.,12.0,0.,12.0,0.,12.0
1979-03-02 01:05:28.560 ,6,1,2.,12.0,0.,12.0,0.,12.0,0.,12.0
1979-03-02 01:05:40.560 ,6,1,0.,12.0,0.,12.0,0.,12.0,0.,12.0
1979-03-02 01:05:52.560 ,7,1,1.,12.0,0.,12.0,0.,12.0,2.,12.0
1979-03-02 01:06:04.560 ,7,1,1.,12.0,0.,12.0,0.,12.0,0.,12.0
1979-03-02 01:06:16.560 ,7,1,0.,12.0,0.,12.0,0.,12.0,0.,12.0
1979-03-02 01:06:28.560 ,7,1,0.,12.0,0.,12.0,0.,12.0,0.,12.0
1979-03-02 01:06:40.560 ,6,1,0.,12.0,0.,12.0,0.,12.0,0.,12.0
1979-03-02 01:06:52.560 ,6,1,1.,12.0,0.,12.0,0.,12.0,0.,12.0
1979-03-02 01:07:04.560 ,5,1,0.,12.0,0.,12.0,0.,12.0,1.,12.0
1979-03-02 01:07:16.560 ,5,1,0.,12.0,0.,12.0,0.,12.0,1.,12.0
1979-03-02 01:07:28.560 ,4,1,0.,12.0,0.,12.0,0.,12.0,0.,12.0
1979-03-02 01:07:40.560 ,4,1,2.,12.0,0.,12.0,0.,12.0,0.,12.0
1979-03-02 01:07:52.560 ,1,1,0.,12.0,0.,12.0,0.,12.0,0.,12.0
1979-03-02 01:08:04.560 ,1,1,2.,12.0,0.,12.0,0.,12.0,4.,12.0
1979-03-02 01:08:16.560 ,2,1,0.,12.0,0.,12.0,0.,12.0,0.,12.0
1979-03-02 01:08:28.560 ,2,1,1.,12.0,0.,12.0,0.,12.0,1.,12.0
1979-03-02 01:08:40.560 ,6,1,1.,12.0,0.,12.0,0.,12.0,0.,12.0
1979-03-02 01:08:52.560 ,6,1,0.,12.0,0.,12.0,0.,12.0,0.,12.0
1979-03-02 01:09:04.560 ,5,1,0.,12.0,0.,12.0,0.,12.0,0.,12.0
1979-03-02 01:09:16.560 ,5,1,1.,12.0,0.,12.0,0.,12.0,0.,12.0
1979-03-02 01:09:28.560 ,1,1,1.,12.0,0.,12.0,0.,12.0,0.,12.0
1979-03-02 01:09:40.560 ,1,1,2.,12.0,0.,12.0,0.,12.0,2.,12.0
1979-03-02 01:09:52.560 ,2,1,1.,12.0,0.,12.0,0.,12.0,0.,12.0
1979-03-02 01:10:04.560 ,2,1,2.,12.0,0.,12.0,0.,12.0,1.,12.0
1979-03-02 01:10:16.560 ,6,1,2.,12.0,0.,12.0,0.,12.0,1.,12.0
1979-03-02 01:10:28.560 ,6,1,1.,12.0,0.,12.0,0.,12.0,2.,12.0
1979-03-02 01:10:40.560 ,5,1,0.,12.0,0.,12.0,0.,12.0,1.,12.0
1979-03-02 01:10:52.560 ,5,1,0.,12.0,0.,12.0,0.,12.0,0.,12.0
1979-03-02 01:11:04.560 ,1,1,1.,12.0,0.,12.0,0.,12.0,0.,12.0
1979-03-02 01:11:16.560 ,1,1,0.,12.0,0.,12.0,0.,12.0,0.,12.0
1979-03-02 01:11:28.560 ,2,1,0.,12.0,0.,12.0,0.,12.0,1.,12.0
1979-03-02 01:11:40.560 ,2,1,0.,12.0,0.,12.0,0.,12.0,0.,12.0
1979-03-02 01:11:52.560 ,6,1,0.,12.0,0.,12.0,0.,12.0,0.,12.0
1979-03-02 01:12:04.560 ,6,1,1.,12.0,0.,12.0,0.,12.0,0.,12.0
1979-03-02 01:12:16.560 ,5,1,0.,12.0,0.,12.0,0.,12.0,0.,12.0
1979-03-02 01:12:28.560 ,5,1,1.,12.0,0.,12.0,0.,12.0,0.,12.0
1979-03-02 01:12:40.560 ,1,1,0.,12.0,0.,12.0,0.,12.0,0.,12.0
1979-03-02 01:12:52.560 ,1,1,0.,12.0,0.,12.0,0.,12.0,0.,12.0
1979-03-02 01:13:04.560 ,2,1,2.,12.0,0.,12.0,0.,12.0,0.,12.0
1979-03-02 01:13:16.560 ,2,1,1.,12.0,0.,12.0,0.,12.0,0.,12.0
1979-03-02 01:13:28.560 ,6,1,1.,12.0,0.,12.0,0.,12.0,0.,12.0
1979-03-02 01:13:40.560 ,6,1,1.,12.0,0.,12.0,0.,12.0,1.,12.0
1979-03-02 01:13:52.560 ,5,1,0.,12.0,0.,12.0,0.,12.0,0.,12.0
1979-03-02 01:14:04.560 ,5,1,1.,12.0,0.,12.0,0.,12.0,0.,12.0
1979-03-02 01:14:16.560 ,1,1,0.,12.0,0.,12.0,0.,12.0,1.,12.0
1979-03-02 01:14:28.560 ,1,1,0.,12.0,0.,12.0,0.,12.0,0.,12.0
1979-03-02 01:14:40.560 ,2,1,1.,12.0,0.,12.0,0.,12.0,0.,12.0
1979-03-02 01:14:52.560 ,2,1,0.,12.0,0.,12.0,0.,12.0,0.,12.0
1979-03-02 01:15:04.560 ,6,1,0.,12.0,0.,12.0,0.,12.0,0.,12.0
1979-03-02 01:15:16.560 ,6,1,1.,12.0,0.,12.0,0.,12.0,1.,12.0
1979-03-02 01:15:28.560 ,5,1,0.,12.0,0.,12.0,0.,12.0,0.,12.0
1979-03-02 01:15:40.560 ,5,1,2.,12.0,0.,12.0,0.,12.0,0.,12.0
1979-03-02 01:15:52.560 ,1,1,0.,12.0,0.,12.0,0.,12.0,2.,12.0
1979-03-02 01:16:04.560 ,1,1,1.,12.0,0.,12.0,0.,12.0,2.,12.0
1979-03-02 01:16:16.560 ,2,1,1.,12.0,0.,12.0,0.,12.0,1.,12.0
1979-03-02 01:16:28.560 ,2,1,0.,12.0,0.,12.0,0.,12.0,2.,12.0
1979-03-02 01:16:40.560 ,6,1,2.,12.0,0.,12.0,0.,12.0,2.,12.0
1979-03-02 01:16:52.560 ,6,1,0.,12.0,0.,12.0,0.,12.0,1.,12.0
1979-03-02 01:17:04.560 ,5,1,0.,12.0,0.,12.0,0.,12.0,0.,12.0
1979-03-02 01:17:16.560 ,5,1,1.,12.0,0.,12.0,0.,12.0,0.,12.0
1979-03-02 01:17:28.560 ,1,1,1.,12.0,0.,12.0,0.,12.0,2.,12.0
1979-03-02 01:17:40.560 ,1,1,0.,12.0,0.,12.0,0.,12.0,0.,12.0
1979-03-02 01:17:52.560 ,2,1,2.,12.0,0.,12.0,0.,12.0,1.,12.0
1979-03-02 01:18:04.560 ,2,1,0.,12.0,0.,12.0,0.,12.0,0.,12.0
1979-03-02 01:18:16.560 ,6,1,1.,12.0,0.,12.0,0.,12.0,0.,12.0
1979-03-02 01:18:28.560 ,6,1,1.,12.0,0.,12.0,0.,12.0,0.,12.0
1979-03-02 01:18:40.560 ,5,1,0.,12.0,0.,12.0,0.,12.0,0.,12.0
1979-03-02 01:18:52.560 ,5,1,0.,12.0,0.,12.0,0.,12.0,0.,12.0
1979-03-02 01:19:04.560 ,1,1,0.,12.0,0.,12.0,0.,12.0,2.,12.0
1979-03-02 01:19:16.560 ,1,1,1.,12.0,0.,12.0,0.,12.0,0.,12.0
1979-03-02 01:19:28.560 ,2,1,1.,12.0,0.,12.0,0.,12.0,0.,12.0
1979-03-02 01:19:40.560 ,2,1,1.,12.0,0.,12.0,0.,12.0,0.,12.0
1979-03-02 01:19:52.560 ,6,1,2.,12.0,0.,12.0,0.,12.0,0.,12.0